Location: Brodeslavy
(49.9527°N, 13.5567°E)
Time: 20:01:41
(UTC+00:00)

CZ-2C R/B - Pass Details

Date: 17 June 2025
Orbit: 632 x 691 km, 98.1° (Epoch: 16 July)

Event Time Altitude Azimuth Distance (km) Brightness Sun altitude
Rises 21:40:28 0° 17° (NNE) 2,995 8.0 -14.2°
Reaches altitude 10° 21:42:43 10° 23° (NNE) 2,088 7.0 -14.3°
Maximum altitude 21:47:12 54° 101° (E) 819 4.0 -14.5°
Enters shadow 21:49:48 24° 169° (S) 1,394 4.7 -14.7°
